World > North America > United States > Mississippi

Bentley, Mississippi Regional Weather

Lat: 33.67N, Lon: 89.13W
Wx Zone: MSZ029Web Search

Helpful Tip: Abbreviated, 7 Day, 14 Day Forecasts. There is a weather forecast for every taste.

Feedback


°F Click to change Bentley hourly weather to Imperial units.Click to change Bentley hourly weather to Metric units. °C
Bentley Weather Map
UTC Time: 4/17/2021, 20:16
Your Time:

Bentley, MS Regional Weather

Expires:202104172100;;706374
ASUS44 KJAN 172010
RWRMS 

MISSISSIPPI HOURLY WEATHER ROUNDUP
NATIONAL WEATHER SERVICE JACKSON MS
300 PM CDT SAT APR 17 2021

NOTE: "FAIR: INDICATES FEW OR NO CLOUDS BELOW 12,000 FEET WITH NO
SIGNIFICANT WEATHER AND/OR OBSTRUCTIONS TO VISIBILITY.


MSZ003>006-009-014>017-022>024-029>033-037>039-172100-
NORTHEAST MISSISSIPPI
  
CITY           SKY/WX    TMP DP  RH WIND       PRES   REMARKS
ABERDEEN       MOCLDY    68  46  45 N10       29.91S                  
COLUMBUS AFB   FAIR      68  46  44 N10       29.88S                  
CORINTH        MOCLDY    63  43  48 W12       29.93R                  
GOLDN TRIANGLE PTSUNNY   68  49  50 NW9       29.90S                  
STARKVILLE     MOCLDY    64  48  55 N6        29.92S                  
TUPELO         PTSUNNY   67  44  43 N13       29.91R                  
$$


SKY/WX - Weather  TMP - Temperature  DP - Dew Point  RH - Relative Humidity
WIND - Wind Direction/Speed PRES - Barometric Pressure VSB - Visibility
WCI - Wind Chill Index E13G22 Wind - East Wind 13 mph/Gusts of 22 mph